CZ-6A DEB

Satellite information

Favourite Embed

Satellite Type and Status

DEBRISIN ORBIT

Key statistics

Satellite CZ-6A DEB at a glance.

Uptime

334

Days in orbit

Revolutions

≈ 14.2

Per day

Orbit

LEO

Low Earth Orbit

Inclination

89.0

Latest

Satellite identification and parameters

Extended collection of information and parameters for CZ-6A DEB.

Object identification

Identified? True

Debris? True

Object name: CZ-6A DEB

International designator: 2024-140XC

Object number (NORAD): 61387

Object ID (CCSDS): 61387

Country: PEOPLES REPUBLIC OF CHINA (PRC)

Current information (Y/N): Y

RCS size: SMALL

Orbital parameters

Period: 101.177 minutes

Inclination: 89.0145 deg

SMA: 7192.543 km

Apoapsis: 843.358 km

Periapsis: 785.457 km

RAAN: 314.0736 deg

Eccentricy: 0.0040251

Argument of periapsis: 210.7708 deg

Mean anomaly: 149.1125 deg

Mean motion: 14.23243147 rev/day

Mean motion (dot): 0.00002277 rev/day2

B* drag term: 0.00099265 1/REarth

Two-line elements (TLE)

Creation date: July 5, 2025, 5:45 p.m.

Reference frame: TEME

Reference center: EARTH

Epoch: July 5, 2025, 2:38 p.m. UTC

TLE line 0: 0 CZ-6A DEB

TLE line 1: 1 61387U 24140XC 25186.61007124 .00002277 00000-0 99265-3 0 9991

TLE line 2: 2 61387 89.0145 314.0736 0040251 210.7708 149.1125 14.23243147 43141

Live tracking on map

Real-time ground track for satellite CZ-6A DEB.

In-orbit conjunctions

A list of the most updated potential collisions computed for object CZ-6A DEB.

Target Orbit TCA Probability of collision Miss distance Type
NOAA 17 SSO 2025-05-15 07:08:12 0.0006107306 397.0 (m) PAYLOAD
CZ-6A DEB SSO 2025-04-30 09:58:43 0.0001020394 233.0 (m) DEBRIS
NOAA 16 DEB SSO 2025-03-08 06:32:01 0.0001152065 335.0 (m) DEBRIS
THORAD AGENA D DEB SSO 2024-12-02 07:47:31 0.0007702291 407.0 (m) DEBRIS

Associated space launch

18 Low Earth Orbit communication satellites with Ku, Q and V band payloads for the G60 constellation operated by Shanghai Spacecom Satellite Technology (SSST) with funding backed by the Shanghai local government. Initial constellation will consist of 1296 satellites by 2027 with long term plans to expand it to 12000 satellites.

CZ-6A DEB was lifted into orbit during the mission ‘Long March 6A | G60 Polar Group 01’, on board a Long March 6A space rocket.

The launch took place on Aug. 6, 2024, 6:42 a.m. from Launch Complex 9A.

For more information about the launch, click the button.

Launch to space Long March 6A | G60 Polar Group 01
Long March 6A | G60 Polar Group 01

Agency: N/A

Status: Launch Successful

Launch date: Aug. 6, 2024, 6:42 a.m. UTC

Rocket: Long March 6A

Launch pad: Launch Complex 9A

Location: Taiyuan Satellite Launch Center, People's Republic of China

...

Latest news about this satellite

News about space launch
Brightness of first Chinese broadband constellation satellites alarms astronomers

The first satellites of a Chinese broadband constellation are significantly brighter than those of Western systems, posing a new challenge for astronomers.

News about space launch
Chinese rocket stage breaks up into cloud of more than 700 pieces of space debris

HELSINKI — A Chinese Long March 6A rocket’s upper stage has fragmented into a cloud of over 700 pieces of space debris, adding to concerns about long-term orbital safety. China […]

News about space launch
China's Thousand Sails Megaconstellation Kicks Off with Dangerous Debris Field

China's Thousand Sails Megaconstellation Kicks Off with Dangerous Debris Field


Newsletter sign-up

Weekly statistics, charts and insights to help you stay on top of the space industry.